SL-14 R/B

Satellite information

Favourite Embed

Satellite Type and Status

ROCKET BODYIN ORBIT

Key statistics

Satellite SL-14 R/B at a glance.

Uptime

11289

Days in orbit

Revolutions

≈ 14.8

Per day

Orbit

LEO

Low Earth Orbit

Inclination

82.5

Latest

Satellite identification and parameters

Extended collection of information and parameters for SL-14 R/B.

Object identification

Identified? True

Debris? False

Object name: SL-14 R/B

International designator: 1994-066B

Object number (NORAD): 23318

Object ID (CCSDS): 23318

Country: COMMONWEALTH OF INDEPENDENT STATES (CIS)

Current information (Y/N): Y

RCS size: LARGE

Orbital parameters

Period: 97.253 minutes

Inclination: 82.537 deg

SMA: 7005.356 km

Apoapsis: 644.264 km

Periapsis: 610.179 km

RAAN: 262.547 deg

Eccentricy: 0.00243275

Argument of periapsis: 119.1993 deg

Mean anomaly: 241.1658 deg

Mean motion: 14.80667036 rev/day

Mean motion (dot): 0.00000628 rev/day2

B* drag term: 0.000078237852 1/REarth

Two-line elements (TLE)

Creation date: Sept. 5, 2025, 7:38 p.m.

Reference frame: TEME

Reference center: EARTH

Epoch: Sept. 5, 2025, 12:05 p.m. UTC

TLE line 0: 0 SL-14 R/B

TLE line 1: 1 23318U 94066B 25248.50406768 .00000628 00000-0 78238-4 0 9997

TLE line 2: 2 23318 82.5370 262.5470 0024327 119.1993 241.1658 14.80667036666210

Live tracking on map

Real-time ground track for satellite SL-14 R/B.

In-orbit conjunctions

A list of the most updated potential collisions computed for object SL-14 R/B.

Target Orbit TCA Probability of collision Miss distance Type
CZ-6A DEB SSO 2024-11-15 13:12:23 0.0002023911 355.0 (m) DEBRIS
CZ-2C DEB SSO 2024-07-30 09:09:08 0.0001050995 402.0 (m) DEBRIS

Associated space launch

Ocean observation satellite

SL-14 R/B was lifted into orbit during the mission ‘Tsiklon-3 | Okean-O1 7’, on board a Tsiklon-3 space rocket.

The launch took place on Oct. 11, 1994, 2:30 p.m. from 32/2.

For more information about the launch, click the button.

Launch to space Tsiklon-3 | Okean-O1 7
Tsiklon-3 | Okean-O1 7

Agency: N/A

Status: Launch Successful

Launch date: Oct. 11, 1994, 2:30 p.m. UTC

Rocket: Tsiklon-3

Launch pad: 32/2

Location: Plesetsk Cosmodrome, Russian Federation

...

Latest news about this satellite

There are no fresh news available about this satellite. Check back as we update our databases every day.


Newsletter sign-up

Weekly statistics, charts and insights to help you stay on top of the space industry.